Location: Praha
(50.0830°N, 14.4670°E)
Time: 16:35:09
(UTC+02:00)

ISS - Pass Details

Date: 17 May 2022
Orbit: 414 x 421 km, 51.6° (Epoch: 28 May)

Event Time Altitude Azimuth Distance (km) Brightness Sun altitude
Rises 00:07:15 0° 274° (W) 2,357 0.3 -19.7°
Reaches altitude 10° 00:09:22 10° 278° (W) 1,492 -0.7 -19.8°
Maximum altitude 00:12:42 64° 1° (N) 464 -3.4 -19.9°
Enters shadow 00:14:51 20° 79° (E) 1,029 -1.8 -20.0°
